Location: Newark
(52.8300°N, 8.0000°E)
Time: 21:42:48
(UTC+00:00)

STARLINK-1126 - Pass Details

Date: 29 January 2020
Orbit: 348 x 351 km, 53.0° (Epoch: 18 February)

Event Time Altitude Azimuth Distance (km) Brightness Sun altitude
Rises 17:46:45 0° 284° (WNW) 2,170 8.0 -15.0°
Reaches altitude 10° 17:48:49 10° 276° (W) 1,325 6.8 -15.4°
Maximum altitude 17:51:37 41° 205° (SSW) 532 3.8 -15.8°
Enters shadow 17:53:03 23° 147° (SSE) 814 4.3 -16.0°
